Voltar ao catálogo

DELTA 1 DEB

AtivoLEO
NORAD 10765·DEBRIS·🇺🇸 United States

Lançado Jul 29, 1976 de Vandenberg Space Force Base

Loading…

Próximas Passagens (próximas 24 horas)

TLE

AtualizadoSource: Space-Track

Época: Sep 14, 2026, 10:57 UTC

1 10765U 76077BN  26257.45655766 -.00000067  00000-0 -24562-3 0  9999
2 10765 101.9948  89.5257 0130551 205.1511 184.0676 12.16527344227412

Acompanhe DELTA 1 DEB em tempo real com AllMySat

Download on the App Store